Aérodrome :
LOGIN :

S'inscrire | Disclaimer

   EN    FR    IT 

 










Légende :    VFR   VFR Marginal   IFR   IFR Intensif   IFR Très Intensif
Visi : 
Plafond : 
>= 8 km
>= 3000ft
5 à 8 km
1000 à 3000 ft
1500m à 5 km
500 à 1000 ft
800 à 1500m
200 à 500 ft
< 800m
< 200 ft
Symboles :   Orages  Brouillard  Fortes neiges  Fortes précipitations  Vent > 20 kt
SIGMETs :   Divers  Orages  Givrage  Turbulence  Onde Orograph.  Cendres Volcan.







- Altitude de l'aérodrome : 348 ft
- Code IATA : LDV
- Voir les cartes d'approche


LFRJ - Landivisiau

DERNIER METAR :
  • 240430Z AUTO 06007KT 0450 0400 R26/0900U R08/0650U FG VV/// 06/06 Q1030

METARs EXPIRÉS :
  • 240400Z AUTO 08006KT 040V100 0350 0250 R26/0450N R08/0400N FG VV/// 06/06 Q1030
  • 240330Z AUTO 05006KT 0250 R26/0375N R08/0325N FG VV/// 06/06 Q1030
  • 240300Z AUTO 06005KT 0300 0250 R26/0400N R08/0400N FG VV/// 06/06 Q1029
  • 240230Z AUTO 06004KT 1800 0550 R26/P2000 R08/0650N BCFG SCT002 OVC058 06/06 Q1029
  • 240200Z AUTO 06005KT 2900 BR NSC 07/06 Q1029

Prévision TAF périmée.
Pas de NOTAMs connus pour ce terrain.



MET'MAP, la Météo Aéronautique d'un coup d'oeil ! - Copyright ORBIFLY Décembre 2007 - Disclaimer

ORBIFLY MET'MAP TEAM :

Programmation & Développement : Alexandra Zaïnal
Conception & Développement : Baudouin d'Aumeries
Co-Programmation & Développement : Marc-Olivier Méhu
Soutien technique & logistique : Manuel Goepfert

Contact : metmap@orbifly.com




SOURCES & CREDITS :

   NOAA